Location: Olsztyn
(53.7767°N, 20.4765°E)
Time: 13:08:39
(UTC+02:00)

A-11 Canister half - Pass Details

Date: 21 January 2022
Orbit: 1513 x 1686 km, 47.2° (Epoch: 23 May)

Event Time Altitude Azimuth Distance (km) Brightness Sun altitude
Rises 17:45:47 0° 224° (SW) 4,729 12.6 -15.3°
Reaches altitude 10° 17:49:05 10° 217° (SW) 3,725 11.7 -15.8°
Maximum altitude 17:57:35 41° 152° (SSE) 2,090 9.5 -17.0°
Enters shadow 18:02:50 22° 98° (E) 2,825 9.8 -17.8°
